This is the latest recevied weather packets stored in our database for station/object W5DNT. If no packets are shown the sender has not sent any weather packets the latest 10 day(s).
| Time | Temp. | Humidity | Pressure | Rain* | Wind** | Luminosity | Snow |
|---|---|---|---|---|---|---|---|
| 1787837407 | 26.67° C | 71% | 1013.9 hPa | 0 mm | - | - | - |
| 1787836507 | 26.11° C | 71% | 1014.1 hPa | 0 mm | - | - | - |
| 1787835603 | - | - | 1014 hPa | 0 mm | - | - | - |
| 1787834759 | - | - | 1013.9 hPa | 0 mm | - | - | - |
| 1787833855 | - | - | 1013.7 hPa | 0 mm | - | - | - |
| 1787832951 | - | - | 1013.7 hPa | 0 mm | - | - | - |
| 1787832046 | - | - | 1013.5 hPa | 0 mm | - | - | - |
| 1787831143 | 25° C | 69% | 1013.4 hPa | 0 mm | - | - | - |
| 1787830242 | 25.56° C | 69% | 1013.3 hPa | 0 mm | - | - | - |
| 1787829342 | 25.56° C | 68% | 1013.1 hPa | 0 mm | - | - | - |
| 1787828441 | 25.56° C | 66% | 1013 hPa | 0 mm | - | - | - |
| 1787827537 | 25.56° C | 67% | 1013 hPa | 0 mm | - | - | - |
| 1787826637 | 25.56° C | 66% | 1012.9 hPa | 0 mm | - | - | - |
| 1787825737 | 26.11° C | 65% | 1012.9 hPa | 0 mm | - | - | - |
| 1787824836 | 26.11° C | 65% | 1012.9 hPa | 0 mm | - | - | - |
| 1787823935 | 26.67° C | 65% | 1012.8 hPa | 0 mm | - | - | - |
| 1787823035 | 26.67° C | 65% | 1012.9 hPa | 0 mm | - | - | - |
| 1787822134 | 26.67° C | 65% | 1012.8 hPa | 0 mm | - | - | - |
| 1787821234 | 26.67° C | 65% | 1012.7 hPa | 0 mm | - | - | - |
| 1787820332 | 26.11° C | 65% | 1012.9 hPa | 0 mm | - | - | - |
| 1787819432 | 26.11° C | 64% | 1013 hPa | 0 mm | - | - | - |
| 1787818531 | 26.11° C | 64% | 1013.2 hPa | 0 mm | - | - | - |
| 1787817635 | 26.11° C | 64% | 1012.7 hPa | 0 mm | - | - | - |
| 1787816734 | 26.11° C | 63% | 1012.6 hPa | 0 mm | - | - | - |
| 1787815826 | 26.11° C | 63% | 1012.6 hPa | 0 mm | - | - | - |
* Rain latest hour (hover to see other rain measurements)
** Current wind speed in m/s (hover to see current wind gust speed)